Regional Weather Roundup
Issued by NWS

Home | Current Version | Previous Version | Text Only | Print | Product List | Glossary Off
Versions: 1 2 3 4 5 6 7 8 9 10 11 12 13 14 15 16 17 18 19 20 21 22 23 24 25 26 27 28 29 30 31 32 33 34 35 36 37 38 39 40 41 42 43 44 45 46 47 48 49 50

000
ASUS43 KLOT 271500
RWRIL

ILLINOIS REGIONAL WEATHER ROUNDUP
NATIONAL WEATHER SERVICE CHICAGO/ROMEOVILLE IL
900 AM CST THU NOV 27 2014

NOTE: "FAIR" INDICATES FEW OR NO CLOUDS BELOW 12,000 FEET WITH NO
SIGNIFICANT WEATHER AND/OR OBSTRUCTIONS TO VISIBILITY.

* THESE STATIONS ARE NOT UNDER NWS QUALITY CONTROL. THEY ALSO MAY NOT
  REPORT WEATHER SUCH AS PRECIPITATION OR FOG.

ILZ001-002-007-009-015-016-024-271600-
NORTHWEST ILLINOIS

CITY           SKY/WX    TMP DP  RH WIND       PRES   REMARKS
MOLINE         LGT SNOW  21  16  81 W15       30.42R WCI   8
STERLING*      CLOUDY    27  19  74 NW12      30.37R WCI  16
$$

ILZ003-004-008-010-011-017-018-271600-
NORTH CENTRAL ILLINOIS

CITY           SKY/WX    TMP DP  RH WIND       PRES   REMARKS
ROCKFORD       FLURRIES  25  18  74 NW9       30.36R WCI  15
$$

ILZ005-006-012>014-019>023-271600-
NORTHEAST ILLINOIS

CITY           SKY/WX    TMP DP  RH WIND       PRES   REMARKS
CHICAGO-OHARE  PTSUNNY   24  18  77 NW15      30.31R WCI  11
CHICAGO-MIDWAY PTSUNNY   28  21  75 NW15      30.31R WCI  16
AURORA         PTSUNNY   24  18  77 NW10      30.34R HAZE    WCI  14
WAUKEGAN       CLOUDY    22  17  81 NW10G21   30.30R WCI  11
DUPAGE AIRPORT CLOUDY    24  18  77 NW13      30.31R WCI  12
WHEELING       CLOUDY    24  18  77 NW17      30.32R WCI  11
NORTHERLY ISL    N/A     26  20  77 NW13        N/A  WCI  15
$$

LMZ740>746-271600-
SOUTHERN LAKE MICHIGAN

STATION/POSITION SKY/WX   TEMP    WIND        PRES    VSBY  WAVE
                          AIR SEA DIR/SP/G                  HT/PER
                          (F)     (DEG/KT/KT) (MB)    (MI)  (FT/S)
SOUTHERN BUOY              31 42  310/ 19/ 23 1024.0R         5/ 6
WAUKEGAN HARBOR            24     310/ 18/ 23   N/A
HARRISON CRIB              25     300/ 17/ 20   N/A
BURNHAM HARBOR             27     290/  9/ 16   N/A
CALUMET HARBOR             26     260/  7/ 11 1024.9R
MICHIGAN CITY              30     270/ 22/ 26   N/A
$$

ILZ025>027-034>036-040-047-049-050-058-095>099-271600-
WEST-CENTRAL ILLINOIS

CITY           SKY/WX    TMP DP  RH WIND       PRES   REMARKS
QUINCY         CLOUDY    24  17  74 NW22      30.47R WCI   9
$$

ILZ028>032-037-038-041>044-048-051>054-059>061-271600-
CENTRAL ILLINOIS

CITY           SKY/WX    TMP DP  RH WIND       PRES   REMARKS
BLOOMINGTON    CLOUDY    27  21  80 NW15      30.37R WCI  15
DECATUR        CLOUDY    26  22  84 NW10      30.40R FOG     WCI  16
PEORIA         LGT SNOW  28  21  75 NW7       30.40R WCI  21
SPRINGFIELD    LGT SNOW  28  22  78 NW10      30.43R WCI  19
TAYLORVILLE    NOT AVBL
$$

ILZ033-039-045-046-055>057-062-063-271600-
EAST-CENTRAL ILLINOIS

CITY           SKY/WX    TMP DP  RH WIND       PRES   REMARKS
CHAMPAIGN      CLOUDY    26  22  84 NW16      30.38R WCI  14
MATTOON        CLOUDY    25  20  81 NW18G26   30.39R WCI  11
$$

ILZ079-100>102-271600-
SOUTHWEST ILLINOIS

CITY           SKY/WX    TMP DP  RH WIND       PRES   REMARKS
ALTON          CLOUDY    30  23  74 NW14G21   30.47R WCI  20
CAHOKIA*       CLOUDY    31  26  82 NW13      30.49R WCI  21
$$

ILZ064>066-069>071-074>076-080>082-084>086-088>090-092>094-271600-
SOUTH-CENTRAL ILLINOIS

CITY           SKY/WX    TMP DP  RH WIND       PRES   REMARKS
CARBONDALE     CLOUDY    29  22  75 NW12      30.49R WCI  19
MARION         CLOUDY    28  23  80 NW14      30.49R WCI  17
MT. VERNON     CLOUDY    27  19  74 CALM      30.46R
$$

ILZ067-068-072-073-078-083-087-091-271600-
SOUTHEAST ILLINOIS

CITY           SKY/WX    TMP DP  RH WIND       PRES   REMARKS
LAWRENCEVILLE  SUNNY     26  22  84 NW9       30.41R FOG     WCI  17
$$

ABBREVIATIONS USED IN REMARKS
   TC - TEMPERATURE IN CELSIUS
  WCI - WIND CHILL INDEX
   HX - HEAT INDEX
  VSB - VISIBILITY
$$




USA.gov is the U.S. government's official web portal to all federal, state and local government web resources and services.